TimePST,TemperatureF,Dew PointF,Humidity,Sea Level PressureIn,VisibilityMPH,Wind Direction,Wind SpeedMPH,Gust SpeedMPH,PrecipitationIn,Events,Conditions,WindDirDegrees,DateUTC
12:18 AM,42.8,39.2,87,30.21,0.2,Calm,Calm,-,N/A,Fog,Fog,0,2012-12-10 08:18:00
12:49 AM,41.0,39.2,93,30.22,1.0,Calm,Calm,-,N/A,,Mist,0,2012-12-10 08:49:00
12:53 AM,41.0,39.0,93,30.22,2.0,Calm,Calm,-,N/A,,Partly Cloudy,0,2012-12-10 08:53:00
1:07 AM,42.8,39.2,87,30.22,1.5,Calm,Calm,-,N/A,,Clear,0,2012-12-10 09:07:00
1:26 AM,41.0,39.2,93,30.22,0.5,Calm,Calm,-,N/A,Fog,Fog,0,2012-12-10 09:26:00
1:42 AM,41.0,37.4,87,30.22,1.5,Calm,Calm,-,N/A,,Clear,0,2012-12-10 09:42:00
1:49 AM,39.2,39.2,100,30.22,3.0,Calm,Calm,-,N/A,,Clear,0,2012-12-10 09:49:00
1:53 AM,39.9,37.9,93,30.22,3.0,Calm,Calm,-,N/A,,Clear,0,2012-12-10 09:53:00
2:05 AM,41.0,39.2,93,30.22,1.8,Calm,Calm,-,N/A,,Clear,0,2012-12-10 10:05:00
2:28 AM,41.0,39.2,93,30.23,0.2,Calm,Calm,-,N/A,Fog,Fog,0,2012-12-10 10:28:00
2:39 AM,39.2,37.4,93,30.23,0.2,Calm,Calm,-,N/A,Fog,Fog,0,2012-12-10 10:39:00
2:49 AM,41.0,39.2,93,30.23,1.0,Calm,Calm,-,N/A,,Mist,0,2012-12-10 10:49:00
2:53 AM,42.1,39.9,92,30.23,1.2,Calm,Calm,-,N/A,,Partly Cloudy,0,2012-12-10 10:53:00
3:00 AM,41.0,39.2,93,30.23,3.0,Calm,Calm,-,N/A,,Partly Cloudy,0,2012-12-10 11:00:00
3:30 AM,41.0,39.2,93,30.23,1.8,Calm,Calm,-,N/A,,Clear,0,2012-12-10 11:30:00
3:53 AM,39.2,37.4,93,30.23,1.5,Calm,Calm,-,N/A,,Clear,0,2012-12-10 11:53:00
4:28 AM,39.2,37.4,93,30.23,3.0,Calm,Calm,-,N/A,,Clear,0,2012-12-10 12:28:00
4:53 AM,41.0,37.9,89,30.23,4.0,Calm,Calm,-,N/A,,Clear,0,2012-12-10 12:53:00
5:16 AM,39.2,37.4,93,30.23,1.8,Calm,Calm,-,N/A,,Clear,0,2012-12-10 13:16:00
5:39 AM,39.2,37.4,93,30.23,0.5,Calm,Calm,-,N/A,Fog,Fog,0,2012-12-10 13:39:00
5:53 AM,39.0,37.0,93,30.23,0.8,Calm,Calm,-,N/A,,Clear,0,2012-12-10 13:53:00
5:58 AM,39.2,37.4,93,30.23,5.0,Calm,Calm,-,N/A,,Clear,0,2012-12-10 13:58:00
6:53 AM,37.9,36.0,93,30.24,5.0,Calm,Calm,-,N/A,,Clear,0,2012-12-10 14:53:00
7:19 AM,39.2,35.6,87,30.25,1.8,Calm,Calm,-,N/A,,Clear,0,2012-12-10 15:19:00
7:29 AM,39.2,37.4,93,30.25,4.0,Calm,Calm,-,N/A,,Clear,0,2012-12-10 15:29:00
7:53 AM,39.0,37.0,93,30.25,4.0,Calm,Calm,-,N/A,,Clear,0,2012-12-10 15:53:00
7:57 AM,39.2,37.4,93,30.25,1.8,Calm,Calm,-,N/A,,Clear,0,2012-12-10 15:57:00
8:20 AM,42.8,39.2,87,30.26,2.0,Calm,Calm,-,N/A,,Clear,0,2012-12-10 16:20:00
8:33 AM,44.6,42.8,93,30.26,3.0,Calm,Calm,-,N/A,,Clear,0,2012-12-10 16:33:00
8:53 AM,46.9,44.1,90,30.26,6.0,Calm,Calm,-,N/A,,Clear,0,2012-12-10 16:53:00
9:53 AM,51.1,46.0,83,30.27,8.0,Calm,Calm,-,N/A,,Clear,0,2012-12-10 17:53:00
10:53 AM,55.0,46.9,74,30.25,6.0,Calm,Calm,-,N/A,,Haze,0,2012-12-10 18:53:00
11:53 AM,57.9,46.9,67,30.22,7.0,West,4.6,-,N/A,,Clear,270,2012-12-10 19:53:00
12:53 PM,59.0,46.0,62,30.19,9.0,Calm,Calm,-,N/A,,Clear,0,2012-12-10 20:53:00
1:53 PM,59.0,45.0,60,30.17,9.0,Calm,Calm,-,N/A,,Clear,0,2012-12-10 21:53:00
2:53 PM,61.0,44.1,54,30.15,10.0,NNW,3.5,-,N/A,,Clear,330,2012-12-10 22:53:00
3:53 PM,61.0,44.1,54,30.14,10.0,Calm,Calm,-,N/A,,Clear,0,2012-12-10 23:53:00
4:53 PM,54.0,44.1,69,30.14,10.0,Calm,Calm,-,N/A,,Clear,0,2012-12-11 00:53:00
5:53 PM,51.1,43.0,74,30.14,10.0,South,3.5,-,N/A,,Clear,170,2012-12-11 01:53:00
6:53 PM,48.0,44.1,86,30.13,6.0,Calm,Calm,-,N/A,,Clear,0,2012-12-11 02:53:00
7:53 PM,46.9,44.1,90,30.14,4.0,Calm,Calm,-,N/A,,Clear,0,2012-12-11 03:53:00
8:17 PM,44.6,42.8,93,30.13,2.5,Calm,Calm,-,N/A,,Clear,0,2012-12-11 04:17:00
8:35 PM,44.6,42.8,93,30.14,3.0,Calm,Calm,-,N/A,,Clear,0,2012-12-11 04:35:00
8:51 PM,44.6,42.8,93,30.14,1.8,Calm,Calm,-,N/A,,Clear,0,2012-12-11 04:51:00
8:53 PM,45.0,42.1,90,30.14,1.2,Calm,Calm,-,N/A,,Clear,0,2012-12-11 04:53:00
9:07 PM,44.6,42.8,93,30.14,3.0,Calm,Calm,-,N/A,,Clear,0,2012-12-11 05:07:00
9:42 PM,44.6,41.0,87,30.14,2.5,Calm,Calm,-,N/A,,Clear,0,2012-12-11 05:42:00
9:50 PM,44.6,41.0,87,30.14,1.0,Calm,Calm,-,N/A,,Clear,0,2012-12-11 05:50:00
9:53 PM,44.1,41.0,89,30.14,0.5,Calm,Calm,-,N/A,Fog,Fog,0,2012-12-11 05:53:00
10:09 PM,44.6,42.8,93,30.14,1.8,East,3.5,-,N/A,,Clear,100,2012-12-11 06:09:00
10:19 PM,44.6,42.8,93,30.13,2.5,Calm,Calm,-,N/A,,Clear,0,2012-12-11 06:19:00
10:30 PM,42.8,41.0,93,30.13,1.0,ESE,3.5,-,N/A,,Clear,120,2012-12-11 06:30:00
10:53 PM,44.1,42.1,93,30.13,2.0,Calm,Calm,-,N/A,,Clear,0,2012-12-11 06:53:00
11:08 PM,44.6,42.8,93,30.13,0.8,ESE,3.5,-,N/A,,Mist,120,2012-12-11 07:08:00
11:17 PM,42.8,41.0,93,30.13,0.2,Calm,Calm,-,N/A,Fog,Fog,0,2012-12-11 07:17:00
11:28 PM,44.6,42.8,93,30.13,0.2,Calm,Calm,-,N/A,Fog,Fog,0,2012-12-11 07:28:00
11:53 PM,42.1,39.9,92,30.12,0.2,Calm,Calm,-,N/A,Fog,Fog,0,2012-12-11 07:53:00